TimeEST,TemperatureF,Dew PointF,Humidity,Sea Level PressureIn,VisibilityMPH,Wind Direction,Wind SpeedMPH,Gust SpeedMPH,PrecipitationIn,Events,Conditions,WindDirDegrees,DateUTC
12:15 AM,64.4,59.0,83,30.18,10.0,NNE,6.9,-,N/A,,Scattered Clouds,30,2013-01-20 05:15:00
12:35 AM,62.6,59.0,88,30.17,10.0,NNE,4.6,-,N/A,,Clear,20,2013-01-20 05:35:00
1:15 AM,62.6,59.0,88,30.16,10.0,NNE,5.8,-,N/A,,Clear,30,2013-01-20 06:15:00
1:35 AM,62.6,59.0,88,30.16,10.0,NNE,5.8,-,N/A,,Clear,30,2013-01-20 06:35:00
1:55 AM,62.6,59.0,88,30.16,10.0,NNE,3.5,-,N/A,,Clear,30,2013-01-20 06:55:00
2:15 AM,62.6,60.8,94,30.15,10.0,NNE,4.6,-,N/A,,Clear,20,2013-01-20 07:15:00
2:35 AM,60.8,60.8,100,30.16,10.0,Calm,Calm,-,N/A,,Clear,0,2013-01-20 07:35:00
2:55 AM,60.8,-9999,N/A,30.16,10.0,Calm,Calm,-,N/A,,Scattered Clouds,0,2013-01-20 07:55:00
3:15 AM,60.8,-9999,N/A,30.16,10.0,Calm,Calm,-,N/A,,Scattered Clouds,0,2013-01-20 08:15:00
3:35 AM,60.8,-9999,N/A,30.15,10.0,NNE,4.6,-,N/A,,Scattered Clouds,30,2013-01-20 08:35:00
3:55 AM,60.8,-9999,N/A,30.15,7.0,NE,5.8,-,N/A,,Mostly Cloudy,50,2013-01-20 08:55:00
4:15 AM,60.8,-9999,N/A,30.15,7.0,NE,3.5,-,N/A,,Mostly Cloudy,40,2013-01-20 09:15:00
4:35 AM,60.8,-9999,N/A,30.15,7.0,NNE,4.6,-,N/A,,Mostly Cloudy,20,2013-01-20 09:35:00
4:55 AM,60.8,-9999,N/A,30.15,7.0,NNE,3.5,-,N/A,,Overcast,20,2013-01-20 09:55:00
5:15 AM,60.8,-9999,N/A,30.15,7.0,NNE,4.6,-,N/A,,Overcast,20,2013-01-20 10:15:00
5:35 AM,60.8,-9999,N/A,30.16,7.0,North,4.6,-,N/A,,Overcast,10,2013-01-20 10:35:00
5:55 AM,60.8,-9999,N/A,30.15,7.0,NNE,3.5,-,N/A,,Overcast,30,2013-01-20 10:55:00
6:15 AM,60.8,-9999,N/A,30.16,7.0,North,3.5,-,N/A,,Overcast,10,2013-01-20 11:15:00
6:35 AM,60.8,-9999,N/A,30.17,7.0,North,5.8,-,N/A,,Overcast,10,2013-01-20 11:35:00
6:55 AM,60.8,-9999,N/A,30.17,7.0,North,5.8,-,N/A,,Overcast,10,2013-01-20 11:55:00
7:15 AM,60.8,-9999,N/A,30.17,5.0,NNE,4.6,-,N/A,,Haze,20,2013-01-20 12:15:00
7:35 AM,60.8,-9999,N/A,30.18,4.0,North,5.8,-,N/A,,Haze,360,2013-01-20 12:35:00
8:15 AM,60.8,-9999,N/A,30.18,5.0,NNE,4.6,-,N/A,,Haze,30,2013-01-20 13:15:00
8:35 AM,60.8,-9999,N/A,30.19,5.0,NNE,4.6,-,N/A,,Haze,20,2013-01-20 13:35:00
8:55 AM,62.6,-9999,N/A,30.20,7.0,NNE,4.6,-,N/A,,Scattered Clouds,30,2013-01-20 13:55:00
9:15 AM,62.6,-9999,N/A,30.20,7.0,North,3.5,-,N/A,,Mostly Cloudy,10,2013-01-20 14:15:00
9:35 AM,62.6,-9999,N/A,30.21,10.0,North,5.8,-,N/A,,Overcast,10,2013-01-20 14:35:00
9:55 AM,64.4,-9999,N/A,30.21,10.0,NNE,4.6,-,N/A,,Overcast,30,2013-01-20 14:55:00
10:15 AM,64.4,62.6,94,30.21,10.0,NNE,5.8,-,N/A,,Overcast,30,2013-01-20 15:15:00
10:35 AM,66.2,59.0,78,30.20,10.0,North,5.8,-,N/A,,Overcast,10,2013-01-20 15:35:00
10:55 AM,66.2,60.8,83,30.20,10.0,NE,3.5,-,N/A,,Overcast,40,2013-01-20 15:55:00
11:15 AM,68.0,60.8,78,30.19,10.0,NE,4.6,-,N/A,,Overcast,40,2013-01-20 16:15:00
11:35 AM,69.8,60.8,73,30.18,10.0,NE,6.9,-,N/A,,Overcast,50,2013-01-20 16:35:00
11:55 AM,71.6,60.8,69,30.17,10.0,NNE,5.8,-,N/A,,Mostly Cloudy,30,2013-01-20 16:55:00
12:35 PM,73.4,60.8,65,30.15,10.0,East,6.9,-,N/A,,Overcast,80,2013-01-20 17:35:00
12:55 PM,75.2,60.8,61,30.14,10.0,ENE,8.1,-,N/A,,Overcast,60,2013-01-20 17:55:00
1:15 PM,73.4,60.8,65,30.12,10.0,East,8.1,-,N/A,,Overcast,80,2013-01-20 18:15:00
1:35 PM,75.2,60.8,61,30.10,10.0,East,8.1,-,N/A,,Mostly Cloudy,100,2013-01-20 18:35:00
1:55 PM,77.0,59.0,54,30.10,10.0,East,8.1,-,N/A,,Scattered Clouds,90,2013-01-20 18:55:00
2:15 PM,77.0,59.0,54,30.09,10.0,NE,6.9,-,N/A,,Scattered Clouds,50,2013-01-20 19:15:00
2:35 PM,75.2,59.0,57,30.08,10.0,East,5.8,-,N/A,,Mostly Cloudy,90,2013-01-20 19:35:00
2:55 PM,77.0,59.0,54,30.08,10.0,NE,9.2,-,N/A,,Mostly Cloudy,50,2013-01-20 19:55:00
3:15 PM,75.2,59.0,57,30.08,10.0,NE,6.9,-,N/A,,Overcast,40,2013-01-20 20:15:00
3:35 PM,75.2,59.0,57,30.08,10.0,ENE,8.1,-,N/A,,Overcast,60,2013-01-20 20:35:00
3:55 PM,73.4,59.0,61,30.08,10.0,NE,5.8,-,N/A,,Mostly Cloudy,50,2013-01-20 20:55:00
4:15 PM,77.0,59.0,54,30.08,10.0,NE,4.6,-,N/A,,Scattered Clouds,50,2013-01-20 21:15:00
4:35 PM,75.2,59.0,57,30.08,10.0,ENE,4.6,-,N/A,,Scattered Clouds,60,2013-01-20 21:35:00
4:55 PM,75.2,59.0,57,30.08,10.0,NE,5.8,-,N/A,,Mostly Cloudy,40,2013-01-20 21:55:00
5:15 PM,73.4,59.0,61,30.08,10.0,NNE,4.6,-,N/A,,Mostly Cloudy,30,2013-01-20 22:15:00
5:35 PM,73.4,59.0,61,30.08,10.0,NE,5.8,-,N/A,,Mostly Cloudy,50,2013-01-20 22:35:00
5:55 PM,73.4,59.0,61,30.09,10.0,NE,5.8,-,N/A,,Mostly Cloudy,50,2013-01-20 22:55:00
6:15 PM,71.6,59.0,64,30.10,10.0,ENE,5.8,-,N/A,,Mostly Cloudy,70,2013-01-20 23:15:00
6:35 PM,71.6,59.0,64,30.09,10.0,ENE,5.8,-,N/A,,Mostly Cloudy,60,2013-01-20 23:35:00
6:55 PM,69.8,59.0,68,30.09,10.0,East,3.5,-,N/A,,Scattered Clouds,80,2013-01-20 23:55:00
7:15 PM,69.8,60.8,73,30.10,10.0,NNE,3.5,-,N/A,,Mostly Cloudy,20,2013-01-21 00:15:00
7:55 PM,69.8,60.8,73,30.11,10.0,ENE,5.8,-,N/A,,Overcast,70,2013-01-21 00:55:00
8:15 PM,69.8,60.8,73,30.11,10.0,East,6.9,-,N/A,,Overcast,80,2013-01-21 01:15:00
8:35 PM,68.0,60.8,78,30.12,10.0,East,4.6,-,N/A,,Scattered Clouds,90,2013-01-21 01:35:00
8:55 PM,68.0,60.8,78,30.12,10.0,East,5.8,-,N/A,,Mostly Cloudy,90,2013-01-21 01:55:00
9:15 PM,68.0,60.8,78,30.13,10.0,East,5.8,-,N/A,,Overcast,80,2013-01-21 02:15:00
9:35 PM,66.2,59.0,78,30.13,10.0,East,6.9,-,N/A,,Overcast,90,2013-01-21 02:35:00
9:55 PM,66.2,59.0,78,30.13,10.0,East,4.6,-,N/A,,Overcast,80,2013-01-21 02:55:00
10:15 PM,66.2,59.0,78,30.14,10.0,East,3.5,-,N/A,,Overcast,80,2013-01-21 03:15:00
10:35 PM,66.2,57.2,73,30.14,10.0,NE,5.8,-,N/A,,Overcast,50,2013-01-21 03:35:00
10:55 PM,66.2,57.2,73,30.13,10.0,ENE,4.6,-,N/A,,Overcast,60,2013-01-21 03:55:00
11:15 PM,66.2,57.2,73,30.13,10.0,ENE,4.6,-,N/A,,Overcast,60,2013-01-21 04:15:00
11:35 PM,64.4,55.4,73,30.13,10.0,ENE,5.8,-,N/A,,Overcast,60,2013-01-21 04:35:00
11:55 PM,64.4,55.4,73,30.13,10.0,NE,4.6,-,N/A,,Overcast,40,2013-01-21 04:55:00